Overview Statistics Trail Chart Weather Telemetry Raw packets
 

This is the latest recevied weather packets stored in our database for station/object KB4MLW-13. If no packets are shown the sender has not sent any weather packets the latest 10 day(s).

<< 56 57 58 59 60 61 62 >>
Time Temp. Humidity Pressure Rain* Wind** Luminosity Snow
1788288749 34.44° C 59% 1001.3 hPa 0 mm - - -
1788288688 34.44° C 56% 1001.6 hPa 0 mm - - -
1788288599 33.89° C 56% 1001.5 hPa 0 mm - - -
1788288538 34.44° C 56% 1001.7 hPa 0 mm - - -
1788288448 34.44° C 59% 1001.6 hPa 0 mm - - -
1788288388 34.44° C 59% 1001.7 hPa 0 mm - - -
1788288298 34.44° C 57% 1001.6 hPa 0 mm - - -
1788288238 34.44° C 57% 1001.6 hPa 0 mm - - -
1788288178 34.44° C 56% 1001.7 hPa 0 mm - - -
1788288118 34.44° C 56% 1001.7 hPa 0 mm - - -
1788288058 34.44° C 57% 1001.5 hPa 0 mm - - -
1788287998 34.44° C 58% 1001.5 hPa 0 mm - - -
1788287938 33.89° C 59% 1001.7 hPa 0 mm - - -
1788287848 33.89° C 59% 1001.6 hPa 0 mm - - -
1788287788 33.89° C 59% 1001.7 hPa 0 mm - - -
1788287699 33.89° C 59% 1001.9 hPa 0 mm - - -
1788287608 33.89° C 59% 1001.8 hPa 0 mm - - -
1788287548 33.89° C 59% 1001.9 hPa 0 mm - - -
1788287500 33.89° C 60% 1001.7 hPa 0 mm - - -
1788287398 33.89° C 59% 1001.8 hPa 0 mm - - -
1788287309 33.89° C 61% 1001.7 hPa 0 mm - - -
1788287248 33.33° C 59% 1002 hPa 0 mm - - -
1788287159 33.33° C 61% 1001.8 hPa 0 mm - - -
1788287068 33.33° C 61% 1001.9 hPa 0 mm - - -
1788286979 33.33° C 63% 1001.8 hPa 0 mm - - -

* Rain latest hour (hover to see other rain measurements)
** Current wind speed in m/s (hover to see current wind gust speed)